+ View the NASA Portal
+ Center for Near-Earth Object Studies
IMPORTANT:
The SSD Announcement email list is now available. Major changes are coming in the near future, including possible hostname and/or URL changes. To be notified of such changes, subscribe to this email list.
Please visit
this page
for more details.
Don't show this message again
JPL Small-Body Database Browser
Search:
[
help
]
359016 (2008 UD288)
Classification:
Main-belt Asteroid
SPK-ID:
2359016
[
Ephemeris
|
Orbit Diagram
|
Orbital Elements
|
Mission Design
|
Physical Parameters
|
Discovery Circumstances
]
[ show orbit diagram ]
Orbital Elements at Epoch 2458600.5 (2019-Apr-27.0) TDB
Reference:
JPL 9
(heliocentric ecliptic J2000)
Element
Value
Uncertainty (1-sigma)
Units
e
.1062501028100933
7.4509e-08
a
2.219738282198167
2.2212e-08
au
q
1.983890861503112
1.6923e-07
au
i
6.003119935400012
8.2339e-06
deg
node
64.36119839309904
7.4069e-05
deg
peri
78.97638696316719
8.4517e-05
deg
M
330.0640914387112
4.3976e-05
deg
t
p
2458700.947938428802
(2019-Aug-05.44793843)
0.00014788
TDB
period
1207.955915563232
3.31
1.8131e-05
4.964e-08
d
yr
n
.2980241210476156
4.4733e-09
deg/d
Q
2.455585702893222
2.4572e-08
au
Orbit Determination Parameters
# obs. used (total)
114
data-arc span
4786 days (13.10 yr)
first obs. used
2005-11-26
last obs. used
2019-01-03
planetary ephem.
DE431
SB-pert. ephem.
SB431-N16
condition code
0
norm. resid. RMS
.56793
source
ORB
producer
Otto Matic
solution date
2019-Jul-14 11:31:40
Additional Information
Earth MOID
= 1.00726 au
Jupiter MOID
= 2.56246 au
T_jup
= 3.636
[ hide covariance matrix ]
Orbital Elements at Epoch 2456802.5 (2014-May-25.0) TDB
Reference:
JPL 9
(heliocentric ecliptic J2000)
Element
Value
Uncertainty (1-sigma)
Units
e
.1061449061963738
7.4661e-08
q
1.984332519646926
1.6956e-07
au
t
p
2456285.630780604122
(2012-Dec-24.13078060)
0.00014444
TDB
node
64.39113676933415
7.4097e-05
deg
peri
79.14758586044485
8.4527e-05
deg
i
6.002080170784942
8.2316e-06
deg
Orbit Determination Parameters
# obs. used (total)
114
data-arc span
4786 days (13.10 yr)
first obs. used
2005-11-26
last obs. used
2019-01-03
planetary ephem.
DE431
SB-pert. ephem.
SB431-N16
condition code
0
norm. resid. RMS
.56793
source
ORB
producer
Otto Matic
solution date
2019-Jul-14 11:31:40
Additional Information
Jupiter MOID
= 2.56246 au
T_jup
= 3.636
Orbit Covariance (6×6)
e
q
tp
node
peri
i
e
5.574245183722562E-15
-1.25746721630576E-14
-6.34499194197982E-13
-2.934757008102795E-14
1.998426370752389E-14
7.152115004747424E-15
q
-1.25746721630576E-14
2.875215532810011E-14
1.321703665518943E-12
6.199762787897686E-14
-3.248980957567939E-14
-1.531537950600216E-14
tp
-6.34499194197982E-13
1.321703665518943E-12
2.086248489491276E-8
4.268970610326846E-11
5.906864206416853E-9
2.332183906299277E-12
node
-2.934757008102795E-14
6.199762787897686E-14
4.268970610326846E-11
5.490322508702444E-9
-5.448068681576551E-9
-4.399893566212182E-11
peri
1.998426370752389E-14
-3.248980957567939E-14
5.906864206416853E-9
-5.448068681576551E-9
7.144735495039349E-9
4.493053273377773E-11
i
7.152115004747424E-15
-1.531537950600216E-14
2.332183906299277E-12
-4.399893566212182E-11
4.493053273377773E-11
6.775866589273706E-11
[
Ephemeris
|
Orbit Diagram
|
Orbital Elements
|
Mission Design
|
Physical Parameters
|
Discovery Circumstances
]
Physical Parameter Table
Parameter
Symbol
Value
Units
Sigma
Reference
Notes
absolute magnitude
H
17.8
n/a
MPO413358
359016 (2008 UD288)
Discovered 2008-Oct-28 by Mt. Lemmon Survey at Mount Lemmon
Reference:
20130327/Numbers.arc
Last Updated:
2013-03-29
[
Ephemeris
|
Orbit Diagram
|
Orbital Elements
|
Mission Design
|
Physical Parameters
|
Discovery Circumstances
]
2019-Dec-14 02:32 UT
(server date/time)
Site Manager:
Ryan S. Park
Webmaster
:
Alan B. Chamberlin